Abbeville, LA

6:28 AM CST on February 09, 2016 (GMT -0600)
Abbeville

Weather History for KIYA - September, 2012

Change the Weather History Date:

Wednesday, September 12, 2012

  Actual Average (KARA) Record (KARA)
Temperature  
Mean Temperature 80 °F 80 °F  
Max Temperature 90 °F 89 °F 99 °F (1980)
Min Temperature 71 °F 71 °F 56 °F (1954)
Degree Days  
Heating Degree Days 0 0  
Month to date heating degree days 0  
Since 1 July heating degree days 0  
Cooling Degree Days 16 15  
Month to date cooling degree days 191  
Year to date cooling degree days 2334  
Growing Degree Days 30 (Base 50)    
Moisture  
Dew Point 73 °F    
Average Humidity 88    
Maximum Humidity 100    
Minimum Humidity 56    
Precipitation  
Precipitation 0.19 in 0.17 in 3.21 in (1998)
Month to date precipitation 1.92  
Year to date precipitation 42.77  
Sea Level Pressure  
Sea Level Pressure 30.08 in    
Wind  
Wind Speed 4 mph ()    
Max Wind Speed 30 mph    
Max Gust Speed 40 mph    
Visibility 9.7 miles    
Events Rain , Thunderstorm    
T = Trace of Precipitation, MM = Missing Value Source: Averaged Metar Reports

Daily Weather History Graph

Daily Weather History Graph

Search for Another Location

Airport or City:

Trip Planner

Search our weather history database for the weather conditions in past years. The results will help you decide how hot, cold, wet, or windy it might be!

Date:

Astronomy

Sep. 12, 2012 Rise Set
Actual Time 6:51 AM CDT 7:16 PM CDT
Civil Twilight 6:27 AM CDT 7:40 PM CDT
Nautical Twilight 5:59 AM CDT 8:08 PM CDT
Astronomical Twilight 5:30 AM CDT 8:37 PM CDT
Moon 3:21 AM CDT (9/12) 4:54 PM CDT (9/12)
Length of Visible Light 13h 13m
Length of Day
12h 25m
Waning Crescent, 13% of the Moon is Illuminated
Sep 12
Waning Crescent
Sep 15
New
Sep 22
First Quarter
Sep 29
Full
Oct 8
Last Quarter

Hourly Weather History & Observations

Time (CDT) Temp. Heat Index Dew Point Humidity Pressure Visibility Wind Dir Wind Speed Gust Speed Precip Events Conditions
12:15 AM 74.8 °F - 72.3 °F 92% 30.08 in 10.0 mi Calm Calm - N/A   Mostly Cloudy
12:35 AM 74.7 °F - 72.9 °F 94% 30.08 in 10.0 mi East 3.5 mph - N/A   Overcast
12:55 AM 75.2 °F - 72.9 °F 92% 30.08 in 10.0 mi East 3.5 mph - N/A   Overcast
1:15 AM 75.2 °F - 72.9 °F 92% 30.08 in 10.0 mi East 4.6 mph - N/A   Mostly Cloudy
1:35 AM 74.3 °F - 72.7 °F 95% 30.07 in 10.0 mi Calm Calm - N/A   Scattered Clouds
1:55 AM 73.9 °F - 72.9 °F 96% 30.07 in 10.0 mi East 3.5 mph - N/A   Clear
2:15 AM 73.8 °F - 73.0 °F 98% 30.07 in 10.0 mi East 4.6 mph - N/A   Clear
2:35 AM 74.1 °F - 73.4 °F 98% 30.06 in 10.0 mi East 3.5 mph - N/A   Mostly Cloudy
2:55 AM 74.7 °F - 72.7 °F 94% 30.05 in 10.0 mi East 6.9 mph - N/A   Scattered Clouds
3:15 AM 75.6 °F - 72.3 °F 90% 30.05 in 10.0 mi East 5.8 mph - N/A   Mostly Cloudy
3:35 AM 75.2 °F - 71.8 °F 89% 30.05 in 10.0 mi East 4.6 mph - N/A   Scattered Clouds
3:55 AM 74.8 °F - 71.8 °F 90% 30.04 in 10.0 mi East 4.6 mph - N/A   Clear
4:15 AM 74.7 °F - 71.6 °F 90% 30.04 in 10.0 mi East 4.6 mph - N/A   Clear
4:35 AM 74.3 °F - 71.6 °F 91% 30.04 in 10.0 mi East 3.5 mph - N/A   Clear
4:55 AM 74.3 °F - 71.6 °F 91% 30.05 in 10.0 mi Calm Calm - N/A   Clear
5:15 AM 73.6 °F - 71.8 °F 94% 30.05 in 10.0 mi Calm Calm - N/A   Clear
5:35 AM 73.0 °F - 71.8 °F 96% 30.06 in 10.0 mi Calm Calm - N/A   Clear
5:55 AM 73.0 °F - 71.6 °F 95% 30.06 in 10.0 mi East 4.6 mph - N/A   Clear
6:15 AM 73.4 °F - 71.6 °F 94% 30.07 in 10.0 mi East 3.5 mph - N/A   Scattered Clouds
6:35 AM 73.0 °F - 71.6 °F 95% 30.08 in 10.0 mi Calm Calm - N/A   Clear
6:55 AM 72.7 °F - 71.6 °F 96% 30.08 in 10.0 mi East 3.5 mph - N/A   Clear
7:15 AM 72.9 °F - 71.6 °F 96% 30.08 in 10.0 mi Calm Calm - N/A   Clear
7:35 AM 74.1 °F - 72.1 °F 94% 30.08 in 10.0 mi ENE 3.5 mph - N/A   Scattered Clouds
7:55 AM 75.6 °F - 72.7 °F 91% 30.08 in 10.0 mi East 4.6 mph - N/A   Clear
8:15 AM 77.7 °F - 73.4 °F 86% 30.09 in 10.0 mi East 5.8 mph - N/A   Clear
8:35 AM 79.3 °F - 73.9 °F 83% 30.10 in 10.0 mi ESE 4.6 mph - N/A   Clear
8:55 AM 80.8 °F 85.9 °F 74.1 °F 80% 30.10 in 10.0 mi East 5.8 mph - N/A   Clear
9:15 AM 81.7 °F 87.1 °F 73.6 °F 76% 30.10 in 10.0 mi East 8.1 mph - N/A   Clear
9:35 AM 83.1 °F 89.8 °F 74.1 °F 74% 30.11 in 10.0 mi ESE 5.8 mph - N/A Thunderstorm Clear
9:55 AM 84.6 °F 92.4 °F 74.5 °F 72% 30.11 in 10.0 mi East 5.8 mph - N/A   Clear
10:15 AM 86.0 °F 95.5 °F 75.6 °F 71% 30.12 in 10.0 mi SE 6.9 mph - N/A   Scattered Clouds
10:35 AM 86.5 °F 96.4 °F 75.9 °F 70% 30.12 in 10.0 mi SE 8.1 mph - N/A   Scattered Clouds
10:55 AM 85.3 °F 94.6 °F 75.6 °F 73% 30.12 in 10.0 mi SE 8.1 mph - N/A   Mostly Cloudy
11:15 AM 86.2 °F 95.1 °F 75.0 °F 69% 30.11 in 10.0 mi SSE 10.4 mph - N/A   Mostly Cloudy
11:35 AM 86.4 °F 95.5 °F 75.0 °F 69% 30.11 in 10.0 mi SSE 6.9 mph - N/A   Mostly Cloudy
11:55 AM 86.0 °F 95.5 °F 75.6 °F 71% 30.11 in 10.0 mi SSE 8.1 mph - N/A   Mostly Cloudy
12:15 PM 87.8 °F 99.1 °F 76.3 °F 69% 30.10 in 10.0 mi SSE 10.4 mph - N/A Thunderstorm Scattered Clouds
12:35 PM 88.9 °F 98.6 °F 74.8 °F 63% 30.08 in 10.0 mi SSE 9.2 mph - N/A   Clear
12:55 PM 88.3 °F 96.4 °F 73.4 °F 61% 30.08 in 10.0 mi ESE 5.8 mph - N/A   Scattered Clouds
1:15 PM 90.3 °F 101.0 °F 75.0 °F 61% 30.08 in 10.0 mi Calm Calm - N/A   Scattered Clouds
1:35 PM 90.5 °F 101.5 °F 75.2 °F 61% 30.08 in 10.0 mi SE 5.8 mph - N/A   Mostly Cloudy
1:55 PM 90.9 °F 101.2 °F 74.8 °F 59% 30.06 in 10.0 mi South 10.4 mph - N/A   Scattered Clouds
2:15 PM 90.7 °F 99.0 °F 73.2 °F 56% 30.07 in 10.0 mi South 3.5 mph - N/A Thunderstorm Thunderstorm
2:35 PM 86.9 °F 94.5 °F 73.2 °F 64% 30.06 in 10.0 mi North 6.9 mph - N/A Thunderstorm Thunderstorm
2:55 PM 79.9 °F - 68.7 °F 69% 30.06 in 10.0 mi ESE 3.5 mph - N/A Thunderstorm Overcast
3:15 PM 73.8 °F - 69.8 °F 87% 30.10 in 0.8 mi ENE 29.9 mph 40.3 mph N/A Rain , Thunderstorm Heavy Thunderstorms and Rain
3:35 PM 71.6 °F - 71.1 °F 98% 30.09 in 0.8 mi West 5.8 mph - 0.01 in Rain , Thunderstorm Heavy Thunderstorms and Rain
3:55 PM 71.6 °F - 71.6 °F 100% 30.09 in 5.0 mi West 9.2 mph - 0.02 in Rain , Thunderstorm Light Thunderstorms and Rain
4:15 PM 71.2 °F - 71.2 °F 100% 30.07 in 10.0 mi WNW 3.5 mph - 0.02 in Rain , Thunderstorm Light Thunderstorms and Rain
4:55 PM 72.0 °F - 72.0 °F 100% 30.04 in 10.0 mi SSE 4.6 mph - 0.04 in Rain , Thunderstorm Light Thunderstorms and Rain
5:15 PM 72.7 °F - 72.7 °F 100% 30.03 in 10.0 mi ESE 6.9 mph - N/A Rain , Thunderstorm Light Thunderstorms and Rain
5:35 PM 73.0 °F - 72.0 °F 96% 30.05 in 10.0 mi NNE 6.9 mph - 0.01 in Thunderstorm Unknown
5:55 PM 74.3 °F - 71.6 °F 91% 30.08 in 10.0 mi SE 4.6 mph - 0.02 in Rain , Thunderstorm Light Thunderstorms and Rain
6:15 PM 74.5 °F - 72.3 °F 93% 30.09 in 10.0 mi SSE 3.5 mph - N/A   Scattered Clouds
6:35 PM 74.8 °F - 73.2 °F 95% 30.08 in 10.0 mi SSE 8.1 mph - 0.01 in   Clear
6:55 PM 76.1 °F - 74.3 °F 94% 30.06 in 10.0 mi SSE 4.6 mph - 0.01 in   Clear
7:35 PM 74.5 °F - 74.3 °F 99% 30.04 in 10.0 mi Calm Calm - 0.01 in   Clear
7:55 PM 74.1 °F - 74.1 °F 100% 30.04 in 10.0 mi Calm Calm - 0.02 in   Clear
8:15 PM 73.9 °F - 73.9 °F 100% 30.04 in 10.0 mi North 3.5 mph - 0.01 in   Clear
8:35 PM 73.0 °F - 73.0 °F 100% 30.05 in 10.0 mi ENE 3.5 mph - 0.02 in   Clear
8:55 PM 72.7 °F - 72.7 °F 100% 30.06 in 10.0 mi Calm Calm - 0.03 in   Clear
9:15 PM 72.1 °F - 72.1 °F 100% 30.07 in 10.0 mi Calm Calm - N/A   Clear
9:35 PM 72.7 °F - 72.7 °F 100% 30.08 in 10.0 mi Calm Calm - 0.01 in   Clear
9:55 PM 71.8 °F - 71.8 °F 100% 30.08 in 10.0 mi North 3.5 mph - 0.02 in   Clear
10:15 PM 71.6 °F - 71.6 °F 100% 30.09 in 10.0 mi Calm Calm - N/A   Clear
10:35 PM 71.6 °F - 71.6 °F 100% 30.10 in 10.0 mi NE 3.5 mph - 0.01 in   Clear
10:55 PM 71.8 °F - 71.8 °F 100% 30.10 in 10.0 mi Calm Calm - 0.01 in   Clear
11:15 PM 71.6 °F - 71.6 °F 100% 30.10 in 10.0 mi Calm Calm - 0.01 in   Clear
11:35 PM 71.1 °F - 71.1 °F 100% 30.10 in 10.0 mi Calm Calm - 0.02 in   Clear
11:55 PM 71.2 °F - 71.2 °F 100% 30.11 in 10.0 mi Calm Calm - 0.02 in   Clear